Apalachicola, FL

1:00 PM EDT on May 24, 2017 (GMT -0400)
Apalachicola Municipal

Weather History for KAAF - January, 2014

Change the Weather History Date:

Saturday, January 11, 2014

  Actual Average Record
Temperature  
Mean Temperature 66 °F 52 °F  
Max Temperature 72 °F 63 °F 76 °F (1935)
Min Temperature 59 °F 41 °F 18 °F (1982)
Degree Days  
Heating Degree Days 0    
Month to date heating degree days 153  
Since 1 July heating degree days 454  
Cooling Degree Days 1    
Month to date cooling degree days 1  
Year to date cooling degree days 1  
Growing Degree Days 16 (Base 50)    
Moisture  
Dew Point 63 °F    
Average Humidity 87    
Maximum Humidity 93    
Minimum Humidity 81    
Precipitation  
Precipitation 1.33 in 0.15 in 3.78 in (1991)
Month to date precipitation 2.59 1.43  
Year to date precipitation 2.59 1.43  
Sea Level Pressure  
Sea Level Pressure 29.94 in    
Wind  
Wind Speed 10 mph (SW)    
Max Wind Speed 14 mph    
Max Gust Speed 18 mph    
Visibility 4 miles    
Events Fog , Rain    
T = Trace of Precipitation, MM = Missing Value Source: NWS Daily Summary

Daily Weather History Graph

Daily Weather History Graph

Search for Another Location

Airport or City:

Trip Planner

Search our weather history database for the weather conditions in past years. The results will help you decide how hot, cold, wet, or windy it might be!

Date:

Astronomy

Jan. 11, 2014 Rise Set
Actual Time 7:36 AM EST 5:59 PM EST
Civil Twilight 7:10 AM EST 6:25 PM EST
Nautical Twilight 6:41 AM EST 6:55 PM EST
Astronomical Twilight 6:12 AM EST 7:24 PM EST
Moon 2:40 PM EST (1/11) 3:44 AM EST (1/11)
Length of Visible Light 11h 15m
Length of Day
10h 23m
Waxing Gibbous, 83% of the Moon is Illuminated
Jan 11
Waxing Gibbous
Jan 15
Full
Jan 24
Last Quarter
Jan 30
New
Feb 6
First Quarter

Hourly Weather History & Observations

Time (EST) Temp. Dew Point Humidity Pressure Visibility Wind Dir Wind Speed Gust Speed Precip Events Conditions
12:03 AM 66.2 °F 64.4 °F 94% 30.03 in 7.0 mi SSE 10.4 mph - N/A   Overcast
12:23 AM 66.2 °F 64.4 °F 94% 30.03 in 3.0 mi SSE 10.4 mph - N/A   Overcast
12:31 AM 66.2 °F 62.6 °F 88% 30.03 in 1.5 mi SSE 10.4 mph - N/A   Overcast
12:40 AM 64.4 °F 62.6 °F 94% 30.02 in 0.5 mi SSE 10.4 mph - N/A Fog Fog
12:53 AM 64.9 °F 63.0 °F 93% 30.02 in 0.8 mi SSE 9.2 mph - N/A   Mist
1:31 AM 64.4 °F 62.6 °F 94% 30.02 in 0.2 mi South 8.1 mph - N/A Fog Fog
1:53 AM 64.9 °F 62.1 °F 90% 30.02 in 0.2 mi South 8.1 mph - N/A Fog Fog
2:53 AM 64.0 °F 61.0 °F 90% 30.01 in 0.2 mi South 4.6 mph - N/A Fog Fog
3:20 AM 62.6 °F 60.8 °F 94% 30.00 in 0.5 mi South 5.8 mph - N/A Fog Fog
3:41 AM 64.4 °F 62.6 °F 94% 30.00 in 0.2 mi South 5.8 mph - N/A Fog Fog
3:53 AM 64.9 °F 63.0 °F 93% 29.99 in 0.2 mi South 4.6 mph - N/A Fog Fog
4:53 AM 66.0 °F 63.0 °F 90% 29.97 in 0.2 mi SSE 6.9 mph - N/A Fog Fog
5:53 AM 64.9 °F 63.0 °F 93% 29.97 in 0.2 mi SSE 4.6 mph - N/A Fog Fog
6:53 AM 66.0 °F 63.0 °F 90% 29.96 in 0.2 mi South 6.9 mph - N/A Fog Fog
7:53 AM 64.0 °F 62.1 °F 93% 29.97 in 0.5 mi South 6.9 mph - 0.03 in Fog , Rain Light Rain
8:25 AM 69.8 °F 66.2 °F 88% 29.98 in 1.2 mi SSW 17.3 mph 38.0 mph 0.38 in Rain Heavy Rain
8:27 AM 68.0 °F 66.2 °F 94% 29.98 in 1.2 mi SSW 18.4 mph 38.0 mph 0.44 in Rain Heavy Rain
8:34 AM 66.2 °F 64.4 °F 94% 29.97 in 3.0 mi SSW 16.1 mph 25.3 mph 0.49 in Rain Rain
8:53 AM 64.9 °F 61.0 °F 87% 29.96 in 10.0 mi South 10.4 mph - 0.50 in   Mostly Cloudy
9:43 AM 64.4 °F 60.8 °F 88% 29.98 in 10.0 mi SSW 6.9 mph - N/A   Overcast
9:53 AM 66.0 °F 61.0 °F 84% 29.99 in 10.0 mi SSW 6.9 mph - N/A   Overcast
10:05 AM 64.4 °F 60.8 °F 88% 29.98 in 5.0 mi South 6.9 mph - 0.00 in Rain Light Rain
10:14 AM 64.4 °F 59.0 °F 83% 29.97 in 5.0 mi South 6.9 mph - 0.01 in Rain Light Rain
10:53 AM 66.9 °F 64.0 °F 90% 29.97 in 4.0 mi SW 5.8 mph - 0.05 in   Overcast
10:58 AM 66.2 °F 64.4 °F 94% 29.96 in 2.5 mi South 9.2 mph - N/A   Overcast
11:07 AM 68.0 °F 64.4 °F 88% 29.96 in 0.8 mi SSW 10.4 mph - N/A   Overcast
11:24 AM 68.0 °F 64.4 °F 88% 29.95 in 1.0 mi SW 23.0 mph 33.4 mph 0.03 in Rain Heavy Rain
11:38 AM 71.6 °F 68.0 °F 88% 29.93 in 7.0 mi SSW 10.4 mph - 0.09 in Rain Light Rain
11:53 AM 68.0 °F 64.9 °F 90% 29.93 in 5.0 mi SW 15.0 mph 20.7 mph 0.11 in Rain Light Rain
12:22 PM 71.6 °F 68.0 °F 88% 29.89 in 7.0 mi SW 15.0 mph 23.0 mph 0.02 in   Overcast
12:29 PM 71.6 °F 68.0 °F 88% 29.89 in 6.0 mi SW 15.0 mph 25.3 mph 0.02 in   Overcast
12:53 PM 71.1 °F 68.0 °F 90% 29.88 in 5.0 mi SW 16.1 mph 24.2 mph 0.02 in   Overcast
1:21 PM 69.8 °F 66.2 °F 88% 29.89 in 1.5 mi WSW 25.3 mph 38.0 mph 0.02 in Rain Heavy Rain
1:29 PM 69.8 °F 66.2 °F 88% 29.90 in 0.2 mi West 31.1 mph 44.9 mph 0.19 in Fog , Rain Heavy Rain
1:33 PM 68.0 °F 64.4 °F 88% 29.89 in 0.5 mi West 25.3 mph 44.9 mph 0.29 in Fog , Rain Heavy Rain
1:44 PM 68.0 °F 64.4 °F 88% 29.89 in 1.2 mi West 27.6 mph 36.8 mph 0.45 in Rain Heavy Rain
1:53 PM 64.9 °F 61.0 °F 87% 29.89 in 1.5 mi WSW 23.0 mph 34.5 mph 0.53 in Rain Heavy Rain
2:02 PM 64.4 °F 62.6 °F 94% 29.86 in 3.0 mi WSW 15.0 mph 28.8 mph 0.03 in Rain Rain
2:42 PM 66.2 °F 62.6 °F 88% 29.87 in 7.0 mi WSW 13.8 mph - 0.09 in   Overcast
2:53 PM 66.0 °F 62.1 °F 87% 29.87 in 4.0 mi WSW 13.8 mph - 0.09 in   Overcast
3:44 PM 66.2 °F 62.6 °F 88% 29.86 in 5.0 mi West 8.1 mph - 0.00 in   Mostly Cloudy
3:53 PM 66.9 °F 63.0 °F 87% 29.87 in 6.0 mi WSW 12.7 mph - 0.00 in   Mostly Cloudy
4:32 PM 66.2 °F 62.6 °F 88% 29.88 in 9.0 mi West 10.4 mph - N/A   Overcast
4:48 PM 66.2 °F 62.6 °F 88% 29.89 in 8.0 mi West 12.7 mph - N/A   Overcast
4:53 PM 66.9 °F 63.0 °F 87% 29.89 in 8.0 mi West 12.7 mph - N/A   Overcast
5:04 PM 66.2 °F 62.6 °F 88% 29.89 in 8.0 mi West 12.7 mph - N/A   Mostly Cloudy
5:19 PM 66.2 °F 62.6 °F 88% 29.89 in 8.0 mi West 10.4 mph - N/A   Mostly Cloudy
5:41 PM 66.2 °F 62.6 °F 88% 29.89 in 8.0 mi West 12.7 mph - N/A   Mostly Cloudy
5:53 PM 64.9 °F 61.0 °F 87% 29.89 in 7.0 mi WSW 10.4 mph - N/A   Mostly Cloudy
6:00 PM 64.4 °F 60.8 °F 88% 29.89 in 7.0 mi WSW 11.5 mph - N/A   Scattered Clouds
6:53 PM 64.0 °F 60.1 °F 87% 29.90 in 8.0 mi West 9.2 mph - N/A   Clear
7:53 PM 63.0 °F 60.1 °F 90% 29.93 in 6.0 mi West 9.2 mph - N/A   Clear
8:53 PM 64.0 °F 60.1 °F 87% 29.96 in 7.0 mi West 10.4 mph - N/A   Clear
9:53 PM 64.9 °F 60.1 °F 84% 29.98 in 9.0 mi WNW 12.7 mph - N/A   Clear
11:53 PM 59.0 °F 45.0 °F 60% 30.04 in 10.0 mi NNW 9.2 mph - N/A   Clear